Time,TemperatureF,DewpointF,PressureIn,WindDirection,WindDirectionDegrees,WindSpeedMPH,WindSpeedGustMPH,Humidity,HourlyPrecipIn,Conditions,Clouds,dailyrainin,SoftwareType,DateUTC
2013-01-04 00:03:00,36.6,35.0,30.13,NW,309,0.0,0.0,94,0.00,CLR,,0.00,WeatherDisplay:10.37,2013-01-04 08:03:00,
2013-01-04 00:08:00,36.7,35.1,30.13,NW,309,0.0,0.0,94,0.00,CLR,,0.00,WeatherDisplay:10.37,2013-01-04 08:08:00,
2013-01-04 00:13:00,36.7,35.1,30.13,NW,309,0.0,0.0,94,0.00,CLR,,0.00,WeatherDisplay:10.37,2013-01-04 08:13:00,
2013-01-04 00:18:00,36.9,35.3,30.13,NW,309,0.0,0.0,94,0.00,CLR,,0.00,WeatherDisplay:10.37,2013-01-04 08:18:00,
2013-01-04 00:23:00,37.0,35.4,30.13,NW,309,0.0,0.0,94,0.00,CLR,,0.00,WeatherDisplay:10.37,2013-01-04 08:23:00,
2013-01-04 00:28:00,37.2,35.6,30.14,NW,309,0.0,0.0,94,0.00,CLR,,0.00,WeatherDisplay:10.37,2013-01-04 08:28:00,
2013-01-04 00:33:00,37.6,36.0,30.14,WSW,258,0.0,0.0,94,0.00,CLR,,0.00,WeatherDisplay:10.37,2013-01-04 08:33:00,
2013-01-04 00:38:00,37.7,36.1,30.13,WSW,258,0.0,0.0,94,0.00,CLR,,0.00,WeatherDisplay:10.37,2013-01-04 08:38:00,
2013-01-04 00:43:00,38.0,36.4,30.13,WSW,258,0.0,0.0,94,0.00,CLR,,0.00,WeatherDisplay:10.37,2013-01-04 08:43:00,
2013-01-04 00:48:00,38.1,36.5,30.13,WSW,258,0.0,0.0,94,0.00,CLR,,0.00,WeatherDisplay:10.37,2013-01-04 08:48:00,
2013-01-04 00:53:00,38.3,36.7,30.14,SW,229,0.0,0.0,94,0.00,CLR,,0.00,WeatherDisplay:10.37,2013-01-04 08:53:00,
2013-01-04 00:58:00,38.2,36.9,30.13,NE,34,2.2,2.2,95,0.00,CLR,,0.00,WeatherDisplay:10.37,2013-01-04 08:58:00,
2013-01-04 01:03:00,37.9,36.6,30.14,NE,44,2.3,2.3,95,0.00,CLR,,0.00,WeatherDisplay:10.37,2013-01-04 09:03:00,
2013-01-04 01:08:00,37.7,36.4,30.14,NE,44,0.0,0.0,95,0.00,CLR,,0.00,WeatherDisplay:10.37,2013-01-04 09:08:00,
2013-01-04 01:13:00,37.7,36.4,30.14,North,6,0.0,0.0,95,0.00,CLR,,0.00,WeatherDisplay:10.37,2013-01-04 09:13:00,
2013-01-04 01:18:00,37.8,36.5,30.14,North,6,0.0,0.0,95,0.00,CLR,,0.00,WeatherDisplay:10.37,2013-01-04 09:18:00,
2013-01-04 01:23:00,37.9,36.6,30.14,North,6,0.0,0.0,95,0.00,CLR,,0.00,WeatherDisplay:10.37,2013-01-04 09:23:00,
2013-01-04 01:28:00,38.3,37.0,30.14,North,6,0.0,0.0,95,0.00,CLR,,0.00,WeatherDisplay:10.37,2013-01-04 09:28:00,
2013-01-04 01:33:00,38.7,37.4,30.14,North,6,0.0,0.0,95,0.00,CLR,,0.00,WeatherDisplay:10.37,2013-01-04 09:33:00,
2013-01-04 01:38:00,39.0,37.7,30.15,North,6,0.0,0.0,95,0.00,CLR,,0.00,WeatherDisplay:10.37,2013-01-04 09:38:00,
2013-01-04 01:43:00,39.1,37.5,30.15,North,6,0.0,0.0,94,0.00,CLR,,0.00,WeatherDisplay:10.37,2013-01-04 09:43:00,
2013-01-04 01:48:00,39.4,37.8,30.15,North,6,0.0,0.0,94,0.00,CLR,,0.00,WeatherDisplay:10.37,2013-01-04 09:48:00,
2013-01-04 01:53:00,39.6,38.0,30.15,North,6,0.0,0.0,94,0.00,CLR,,0.00,WeatherDisplay:10.37,2013-01-04 09:53:00,
2013-01-04 01:58:00,39.6,37.7,30.15,North,6,0.0,0.0,93,0.00,CLR,,0.00,WeatherDisplay:10.37,2013-01-04 09:58:00,
2013-01-04 02:03:00,39.8,37.9,30.15,North,6,0.0,0.0,93,0.00,CLR,,0.00,WeatherDisplay:10.37,2013-01-04 10:03:00,
2013-01-04 02:08:00,39.6,37.7,30.15,North,6,0.0,0.0,93,0.00,CLR,,0.00,WeatherDisplay:10.37,2013-01-04 10:08:00,
2013-01-04 02:13:00,39.5,37.9,30.15,North,6,0.0,0.0,94,0.00,CLR,,0.00,WeatherDisplay:10.37,2013-01-04 10:13:00,
2013-01-04 02:18:00,39.6,38.0,30.16,North,6,0.0,0.0,94,0.00,CLR,,0.00,WeatherDisplay:10.37,2013-01-04 10:18:00,
2013-01-04 02:23:00,39.7,38.1,30.16,North,6,0.0,0.0,94,0.00,CLR,,0.00,WeatherDisplay:10.37,2013-01-04 10:23:00,
2013-01-04 02:28:00,39.6,38.0,30.15,North,6,0.0,0.0,94,0.00,CLR,,0.00,WeatherDisplay:10.37,2013-01-04 10:28:00,
2013-01-04 02:33:00,39.7,38.4,30.16,North,6,0.0,0.0,95,0.00,CLR,,0.00,WeatherDisplay:10.37,2013-01-04 10:33:00,
2013-01-04 02:38:00,39.8,38.5,30.16,North,6,0.0,0.0,95,0.00,CLR,,0.00,WeatherDisplay:10.37,2013-01-04 10:38:00,
2013-01-04 02:43:00,40.0,38.7,30.15,North,6,0.0,0.0,95,0.00,CLR,,0.00,WeatherDisplay:10.37,2013-01-04 10:43:00,
2013-01-04 02:48:00,40.0,38.4,30.16,North,6,0.0,0.0,94,0.00,CLR,,0.00,WeatherDisplay:10.37,2013-01-04 10:48:00,
2013-01-04 02:53:00,39.9,38.9,30.16,North,6,0.0,0.0,96,0.00,CLR,,0.00,WeatherDisplay:10.37,2013-01-04 10:53:00,
2013-01-04 02:58:00,40.1,38.8,30.16,North,6,0.0,0.0,95,0.00,CLR,,0.00,WeatherDisplay:10.37,2013-01-04 10:58:00,
2013-01-04 03:03:00,39.7,38.1,30.16,North,6,0.0,0.0,94,0.00,CLR,,0.00,WeatherDisplay:10.37,2013-01-04 11:03:00,
2013-01-04 03:08:00,39.6,38.3,30.16,North,6,0.0,0.0,95,0.00,CLR,,0.00,WeatherDisplay:10.37,2013-01-04 11:08:00,
2013-01-04 03:13:00,39.6,38.6,30.16,North,6,0.0,0.0,96,0.00,CLR,,0.00,WeatherDisplay:10.37,2013-01-04 11:13:00,
2013-01-04 03:18:00,39.8,38.8,30.16,North,6,0.0,0.0,96,0.00,CLR,,0.00,WeatherDisplay:10.37,2013-01-04 11:18:00,
2013-01-04 03:23:00,40.1,39.1,30.16,North,6,0.0,0.0,96,0.00,CLR,,0.00,WeatherDisplay:10.37,2013-01-04 11:23:00,
2013-01-04 03:28:00,40.2,39.2,30.17,North,6,0.0,0.0,96,0.00,CLR,,0.00,WeatherDisplay:10.37,2013-01-04 11:28:00,
2013-01-04 03:33:00,40.0,39.0,30.17,North,6,0.0,0.0,96,0.00,CLR,,0.00,WeatherDisplay:10.37,2013-01-04 11:33:00,
2013-01-04 03:38:00,39.7,38.7,30.17,North,6,0.0,0.0,96,0.00,CLR,,0.00,WeatherDisplay:10.37,2013-01-04 11:38:00,
2013-01-04 03:43:00,39.5,38.5,30.17,North,6,0.0,0.0,96,0.00,CLR,,0.00,WeatherDisplay:10.37,2013-01-04 11:43:00,
2013-01-04 03:48:00,39.4,38.4,30.17,North,6,0.0,0.0,96,0.00,CLR,,0.00,WeatherDisplay:10.37,2013-01-04 11:48:00,
2013-01-04 03:53:00,39.6,38.6,30.17,North,6,0.0,0.0,96,0.00,CLR,,0.00,WeatherDisplay:10.37,2013-01-04 11:53:00,
2013-01-04 03:58:00,40.0,39.0,30.17,North,6,0.0,0.0,96,0.00,CLR,,0.00,WeatherDisplay:10.37,2013-01-04 11:58:00,
2013-01-04 04:03:00,40.0,39.0,30.17,North,6,0.0,0.0,96,0.00,CLR,,0.00,WeatherDisplay:10.37,2013-01-04 12:03:00,
2013-01-04 04:08:00,40.0,39.0,30.17,North,6,0.0,0.0,96,0.00,CLR,,0.00,WeatherDisplay:10.37,2013-01-04 12:08:00,
2013-01-04 04:13:00,40.2,39.4,30.17,North,6,0.0,0.0,97,0.00,CLR,,0.00,WeatherDisplay:10.37,2013-01-04 12:13:00,
2013-01-04 04:18:00,40.4,39.4,30.17,North,6,0.0,0.0,96,0.00,CLR,,0.00,WeatherDisplay:10.37,2013-01-04 12:18:00,
2013-01-04 04:23:00,40.6,39.8,30.17,North,6,0.0,0.0,97,0.00,CLR,,0.00,WeatherDisplay:10.37,2013-01-04 12:23:00,
2013-01-04 04:28:00,40.5,39.7,30.17,North,6,0.0,0.0,97,0.00,CLR,,0.00,WeatherDisplay:10.37,2013-01-04 12:28:00,
2013-01-04 04:33:00,40.7,39.9,30.17,North,6,0.0,0.0,97,0.00,CLR,,0.00,WeatherDisplay:10.37,2013-01-04 12:33:00,
2013-01-04 04:38:00,40.3,39.0,30.17,North,6,0.0,0.0,95,0.00,CLR,,0.00,WeatherDisplay:10.37,2013-01-04 12:38:00,
2013-01-04 04:43:00,39.6,38.6,30.17,North,6,0.0,0.0,96,0.00,CLR,,0.00,WeatherDisplay:10.37,2013-01-04 12:43:00,
2013-01-04 04:48:00,39.5,38.7,30.16,North,6,0.0,0.0,97,0.00,CLR,,0.00,WeatherDisplay:10.37,2013-01-04 12:48:00,
2013-01-04 04:53:00,39.3,38.5,30.16,North,6,0.0,0.0,97,0.00,CLR,,0.00,WeatherDisplay:10.37,2013-01-04 12:53:00,
2013-01-04 04:58:00,39.6,39.1,30.16,North,6,0.0,0.0,98,0.00,CLR,,0.00,WeatherDisplay:10.37,2013-01-04 12:58:00,
2013-01-04 05:03:00,39.5,38.7,30.17,North,6,0.0,0.0,97,0.00,CLR,,0.00,WeatherDisplay:10.37,2013-01-04 13:03:00,
2013-01-04 05:08:00,39.2,38.4,30.17,North,6,0.0,0.0,97,0.00,CLR,,0.00,WeatherDisplay:10.37,2013-01-04 13:08:00,
2013-01-04 05:13:00,39.2,38.4,30.17,North,6,0.0,0.0,97,0.00,CLR,,0.00,WeatherDisplay:10.37,2013-01-04 13:13:00,
2013-01-04 05:18:00,39.3,38.5,30.17,North,6,0.0,0.0,97,0.00,CLR,,0.00,WeatherDisplay:10.37,2013-01-04 13:18:00,
2013-01-04 05:23:00,39.5,38.7,30.17,North,6,0.0,0.0,97,0.00,CLR,,0.00,WeatherDisplay:10.37,2013-01-04 13:23:00,
2013-01-04 05:28:00,39.5,39.0,30.17,North,6,0.0,0.0,98,0.00,CLR,,0.00,WeatherDisplay:10.37,2013-01-04 13:28:00,
2013-01-04 05:33:00,39.7,39.2,30.17,North,6,0.0,0.0,98,0.00,CLR,,0.00,WeatherDisplay:10.37,2013-01-04 13:33:00,
2013-01-04 05:38:00,39.9,39.4,30.17,North,6,0.0,0.0,98,0.00,CLR,,0.00,WeatherDisplay:10.37,2013-01-04 13:38:00,
2013-01-04 05:43:00,40.0,39.5,30.17,North,6,0.0,0.0,98,0.00,CLR,,0.00,WeatherDisplay:10.37,2013-01-04 13:43:00,
2013-01-04 05:48:00,40.3,39.8,30.17,North,6,0.0,0.0,98,0.00,CLR,,0.00,WeatherDisplay:10.37,2013-01-04 13:48:00,
2013-01-04 05:53:00,40.4,39.9,30.17,North,6,0.0,0.0,98,0.00,CLR,,0.00,WeatherDisplay:10.37,2013-01-04 13:53:00,
2013-01-04 05:58:00,40.4,39.9,30.17,North,6,0.0,0.0,98,0.00,CLR,,0.00,WeatherDisplay:10.37,2013-01-04 13:58:00,
2013-01-04 06:03:00,40.5,40.0,30.17,North,6,0.0,0.0,98,0.00,CLR,,0.00,WeatherDisplay:10.37,2013-01-04 14:03:00,
2013-01-04 06:08:00,40.4,39.9,30.17,North,6,0.0,0.0,98,0.00,CLR,,0.00,WeatherDisplay:10.37,2013-01-04 14:08:00,
2013-01-04 06:13:00,40.4,39.9,30.17,North,6,0.0,0.0,98,0.00,CLR,,0.00,WeatherDisplay:10.37,2013-01-04 14:13:00,
2013-01-04 06:18:00,40.3,39.8,30.17,North,6,0.0,0.0,98,0.00,CLR,,0.00,WeatherDisplay:10.37,2013-01-04 14:18:00,
2013-01-04 06:23:00,40.2,39.7,30.17,North,6,0.0,0.0,98,0.00,CLR,,0.00,WeatherDisplay:10.37,2013-01-04 14:23:00,
2013-01-04 06:28:00,39.8,39.3,30.17,North,6,0.0,0.0,98,0.00,CLR,,0.00,WeatherDisplay:10.37,2013-01-04 14:28:00,
2013-01-04 06:33:00,39.6,39.1,30.17,North,6,0.0,0.0,98,0.00,CLR,,0.00,WeatherDisplay:10.37,2013-01-04 14:33:00,
2013-01-04 06:38:00,39.4,38.9,30.17,North,6,0.0,0.0,98,0.00,CLR,,0.00,WeatherDisplay:10.37,2013-01-04 14:38:00,
2013-01-04 06:43:00,39.3,38.8,30.17,North,6,0.0,0.0,98,0.00,CLR,,0.00,WeatherDisplay:10.37,2013-01-04 14:43:00,
2013-01-04 06:48:00,39.5,39.0,30.17,North,6,0.0,0.0,98,0.00,CLR,,0.00,WeatherDisplay:10.37,2013-01-04 14:48:00,
2013-01-04 06:53:00,39.7,39.2,30.17,North,6,0.0,0.0,98,0.00,CLR,,0.00,WeatherDisplay:10.37,2013-01-04 14:53:00,
2013-01-04 06:58:00,39.7,39.2,30.17,North,6,0.0,0.0,98,0.00,CLR,,0.00,WeatherDisplay:10.37,2013-01-04 14:58:00,
2013-01-04 07:03:00,39.4,38.9,30.17,North,6,0.0,0.0,98,0.00,CLR,,0.00,WeatherDisplay:10.37,2013-01-04 15:03:00,
2013-01-04 07:08:00,38.8,38.0,30.17,North,6,0.0,0.0,97,0.00,CLR,,0.00,WeatherDisplay:10.37,2013-01-04 15:08:00,
2013-01-04 07:13:00,38.4,37.9,30.17,North,6,0.0,0.0,98,0.00,CLR,,0.00,WeatherDisplay:10.37,2013-01-04 15:13:00,
2013-01-04 07:18:00,38.2,37.7,30.17,North,6,0.0,0.0,98,0.00,CLR,,0.00,WeatherDisplay:10.37,2013-01-04 15:18:00,
2013-01-04 07:23:00,38.1,37.6,30.17,North,6,0.0,0.0,98,0.00,CLR,,0.00,WeatherDisplay:10.37,2013-01-04 15:23:00,
2013-01-04 07:28:00,38.0,37.5,30.17,North,6,0.0,0.0,98,0.00,CLR,,0.00,WeatherDisplay:10.37,2013-01-04 15:28:00,
2013-01-04 07:33:00,37.9,37.4,30.17,North,6,0.0,0.0,98,0.00,CLR,,0.00,WeatherDisplay:10.37,2013-01-04 15:33:00,
2013-01-04 07:38:00,38.2,37.9,30.16,North,6,0.0,0.0,99,0.00,CLR,,0.00,WeatherDisplay:10.37,2013-01-04 15:38:00,
2013-01-04 07:43:00,38.0,37.7,30.16,North,6,0.0,0.0,99,0.00,CLR,,0.00,WeatherDisplay:10.37,2013-01-04 15:43:00,
2013-01-04 07:48:00,38.1,37.8,30.17,North,6,0.0,0.0,99,0.00,CLR,,0.00,WeatherDisplay:10.37,2013-01-04 15:48:00,
2013-01-04 07:53:00,38.2,37.9,30.16,North,6,0.0,0.0,99,0.00,CLR,,0.00,WeatherDisplay:10.37,2013-01-04 15:53:00,
2013-01-04 07:58:00,38.4,38.1,30.17,North,6,0.0,0.0,99,0.00,CLR,,0.00,WeatherDisplay:10.37,2013-01-04 15:58:00,
2013-01-04 08:03:00,38.8,38.5,30.17,North,6,0.0,0.0,99,0.00,CLR,,0.00,WeatherDisplay:10.37,2013-01-04 16:03:00,
2013-01-04 08:08:00,39.0,38.7,30.17,North,6,0.0,0.0,99,0.00,CLR,,0.00,WeatherDisplay:10.37,2013-01-04 16:08:00,
2013-01-04 08:13:00,39.1,38.8,30.17,North,6,0.0,0.0,99,0.00,CLR,,0.00,WeatherDisplay:10.37,2013-01-04 16:13:00,
2013-01-04 08:18:00,39.2,38.9,30.17,North,6,0.0,0.0,99,0.00,CLR,,0.00,WeatherDisplay:10.37,2013-01-04 16:18:00,
2013-01-04 08:23:00,39.0,38.7,30.17,North,6,0.0,0.0,99,0.00,CLR,,0.00,WeatherDisplay:10.37,2013-01-04 16:23:00,
2013-01-04 08:28:00,39.1,38.8,30.17,North,6,0.0,0.0,99,0.00,CLR,,0.00,WeatherDisplay:10.37,2013-01-04 16:28:00,
2013-01-04 08:33:00,39.4,39.1,30.18,North,6,0.0,0.0,99,0.00,CLR,,0.00,WeatherDisplay:10.37,2013-01-04 16:33:00,
2013-01-04 08:38:00,39.6,39.3,30.18,North,6,0.0,0.0,99,0.00,CLR,,0.00,WeatherDisplay:10.37,2013-01-04 16:38:00,
2013-01-04 08:43:00,40.0,39.7,30.18,North,6,0.0,0.0,99,0.00,CLR,,0.00,WeatherDisplay:10.37,2013-01-04 16:43:00,
2013-01-04 08:48:00,39.8,39.3,30.18,North,6,0.0,0.0,98,0.00,CLR,,0.00,WeatherDisplay:10.37,2013-01-04 16:48:00,
2013-01-04 08:53:00,39.6,39.1,30.18,North,6,0.0,0.0,98,0.00,CLR,,0.00,WeatherDisplay:10.37,2013-01-04 16:53:00,
2013-01-04 08:58:00,39.8,39.5,30.18,North,6,0.0,0.0,99,0.00,CLR,,0.00,WeatherDisplay:10.37,2013-01-04 16:58:00,
2013-01-04 09:03:00,40.2,39.7,30.18,North,6,0.0,0.0,98,0.00,CLR,,0.00,WeatherDisplay:10.37,2013-01-04 17:03:00,
2013-01-04 09:08:00,40.1,39.6,30.18,North,6,0.0,0.0,98,0.00,CLR,,0.00,WeatherDisplay:10.37,2013-01-04 17:08:00,
2013-01-04 09:13:00,39.9,39.4,30.18,North,6,0.0,0.0,98,0.00,CLR,,0.00,WeatherDisplay:10.37,2013-01-04 17:13:00,
2013-01-04 09:18:00,39.9,39.6,30.18,North,6,0.0,0.0,99,0.00,CLR,,0.00,WeatherDisplay:10.37,2013-01-04 17:18:00,
2013-01-04 09:23:00,40.3,40.0,30.19,North,6,0.0,0.0,99,0.00,CLR,,0.00,WeatherDisplay:10.37,2013-01-04 17:23:00,
2013-01-04 09:28:00,40.8,40.5,30.18,North,6,0.0,0.0,99,0.00,CLR,,0.00,WeatherDisplay:10.37,2013-01-04 17:28:00,
2013-01-04 09:33:00,41.4,41.1,30.18,North,6,0.0,0.0,99,0.00,CLR,,0.00,WeatherDisplay:10.37,2013-01-04 17:33:00,
2013-01-04 09:38:00,41.9,41.6,30.19,North,6,0.0,0.0,99,0.00,CLR,,0.00,WeatherDisplay:10.37,2013-01-04 17:38:00,
2013-01-04 09:43:00,42.1,41.6,30.19,North,6,0.0,0.0,98,0.00,CLR,,0.00,WeatherDisplay:10.37,2013-01-04 17:43:00,
2013-01-04 09:48:00,42.4,41.9,30.19,North,6,0.0,0.0,98,0.00,CLR,,0.00,WeatherDisplay:10.37,2013-01-04 17:48:00,
2013-01-04 09:53:00,42.6,42.1,30.19,North,6,0.0,0.0,98,0.00,CLR,,0.00,WeatherDisplay:10.37,2013-01-04 17:53:00,
2013-01-04 09:58:00,43.5,43.0,30.19,North,6,0.0,0.0,98,0.00,CLR,,0.00,WeatherDisplay:10.37,2013-01-04 17:58:00,
2013-01-04 10:03:00,44.8,44.0,30.19,North,6,0.0,0.0,97,0.00,CLR,,0.00,WeatherDisplay:10.37,2013-01-04 18:03:00,
2013-01-04 10:08:00,45.7,44.6,30.19,North,6,0.0,0.0,96,0.00,CLR,,0.00,WeatherDisplay:10.37,2013-01-04 18:08:00,
2013-01-04 10:13:00,46.4,45.0,30.19,North,6,0.0,0.0,95,0.00,CLR,,0.00,WeatherDisplay:10.37,2013-01-04 18:13:00,
2013-01-04 10:18:00,47.3,45.7,30.19,North,6,0.0,0.0,94,0.00,CLR,,0.00,WeatherDisplay:10.37,2013-01-04 18:18:00,
2013-01-04 10:23:00,47.3,45.1,30.19,SSE,147,3.5,3.5,92,0.00,CLR,,0.00,WeatherDisplay:10.37,2013-01-04 18:23:00,
2013-01-04 10:28:00,47.1,45.2,30.19,ESE,113,0.0,0.0,93,0.00,CLR,,0.00,WeatherDisplay:10.37,2013-01-04 18:28:00,
2013-01-04 10:33:00,47.0,45.1,30.19,ESE,113,0.0,0.0,93,0.00,CLR,,0.00,WeatherDisplay:10.37,2013-01-04 18:33:00,
2013-01-04 10:38:00,47.4,45.8,30.18,SSE,151,0.0,0.0,94,0.00,CLR,,0.00,WeatherDisplay:10.37,2013-01-04 18:38:00,
2013-01-04 10:43:00,47.7,45.5,30.18,ESE,123,0.0,0.0,92,0.00,CLR,,0.00,WeatherDisplay:10.37,2013-01-04 18:43:00,
2013-01-04 10:48:00,48.0,45.8,30.18,SE,124,2.3,2.3,92,0.00,CLR,,0.00,WeatherDisplay:10.37,2013-01-04 18:48:00,
2013-01-04 10:53:00,48.4,46.2,30.18,SSE,158,3.5,3.5,92,0.00,CLR,,0.00,WeatherDisplay:10.37,2013-01-04 18:53:00,
2013-01-04 10:58:00,49.1,46.9,30.18,SE,141,0.0,0.0,92,0.00,CLR,,0.00,WeatherDisplay:10.37,2013-01-04 18:58:00,
2013-01-04 11:03:00,49.7,46.9,30.17,SE,141,0.0,0.0,90,0.00,CLR,,0.00,WeatherDisplay:10.37,2013-01-04 19:03:00,
2013-01-04 11:08:00,50.0,46.9,30.17,SSE,150,1.2,0.0,89,0.00,CLR,,0.00,WeatherDisplay:10.37,2013-01-04 19:08:00,
2013-01-04 11:13:00,50.7,47.6,30.17,South,181,2.3,2.3,89,0.00,CLR,,0.00,WeatherDisplay:10.37,2013-01-04 19:13:00,
2013-01-04 11:18:00,51.1,47.4,30.16,SW,227,2.9,2.9,87,0.00,CLR,,0.00,WeatherDisplay:10.37,2013-01-04 19:18:00,
2013-01-04 11:23:00,50.9,47.5,30.16,West,274,3.5,3.5,88,0.00,CLR,,0.00,WeatherDisplay:10.37,2013-01-04 19:23:00,
2013-01-04 11:28:00,50.9,47.5,30.15,SW,223,3.5,3.5,88,0.00,CLR,,0.00,WeatherDisplay:10.37,2013-01-04 19:28:00,
2013-01-04 11:33:00,51.1,48.0,30.15,SSE,151,2.3,2.3,89,0.00,CLR,,0.00,WeatherDisplay:10.37,2013-01-04 19:33:00,
2013-01-04 11:38:00,51.2,47.8,30.15,SSE,167,1.2,0.0,88,0.00,CLR,,0.00,WeatherDisplay:10.37,2013-01-04 19:38:00,
2013-01-04 11:43:00,51.2,47.5,30.15,SSW,202,3.8,3.8,87,0.00,CLR,,0.00,WeatherDisplay:10.37,2013-01-04 19:43:00,
2013-01-04 11:48:00,51.2,47.8,30.14,South,185,2.3,2.3,88,0.00,CLR,,0.00,WeatherDisplay:10.37,2013-01-04 19:48:00,
2013-01-04 11:53:00,51.3,48.2,30.14,SSW,196,1.2,1.2,89,0.00,CLR,,0.00,WeatherDisplay:10.37,2013-01-04 19:53:00,
2013-01-04 11:58:00,51.4,48.0,30.14,West,264,1.2,1.2,88,0.00,CLR,,0.00,WeatherDisplay:10.37,2013-01-04 19:58:00,
2013-01-04 12:03:00,51.9,48.2,30.14,WNW,287,2.3,2.3,87,0.00,CLR,,0.00,WeatherDisplay:10.37,2013-01-04 20:03:00,
2013-01-04 12:08:00,51.0,47.6,30.13,WNW,294,3.5,3.5,88,0.00,CLR,,0.00,WeatherDisplay:10.37,2013-01-04 20:08:00,
2013-01-04 12:13:00,50.7,47.9,30.13,NE,42,0.0,0.0,90,0.00,CLR,,0.00,WeatherDisplay:10.37,2013-01-04 20:13:00,
2013-01-04 12:18:00,50.4,47.6,30.12,North,11,1.2,1.2,90,0.00,CLR,,0.00,WeatherDisplay:10.37,2013-01-04 20:18:00,
2013-01-04 12:23:00,50.5,47.4,30.12,NW,311,3.5,3.5,89,0.00,CLR,,0.00,WeatherDisplay:10.37,2013-01-04 20:23:00,
2013-01-04 12:28:00,50.3,47.5,30.12,NW,319,5.8,5.8,90,0.00,CLR,,0.00,WeatherDisplay:10.37,2013-01-04 20:28:00,
2013-01-04 12:33:00,49.5,46.7,30.12,NNW,328,4.6,4.6,90,0.00,CLR,,0.00,WeatherDisplay:10.37,2013-01-04 20:33:00,
2013-01-04 12:38:00,48.9,46.7,30.12,WNW,289,4.6,4.6,92,0.00,CLR,,0.00,WeatherDisplay:10.37,2013-01-04 20:38:00,
2013-01-04 12:43:00,48.9,47.0,30.11,NW,326,4.7,4.7,93,0.00,CLR,,0.00,WeatherDisplay:10.37,2013-01-04 20:43:00,
2013-01-04 12:48:00,48.7,46.5,30.11,NW,315,5.8,5.8,92,0.00,CLR,,0.00,WeatherDisplay:10.37,2013-01-04 20:48:00,
2013-01-04 12:53:00,48.9,46.7,30.11,NW,325,3.5,3.5,92,0.00,CLR,,0.00,WeatherDisplay:10.37,2013-01-04 20:53:00,
2013-01-04 12:58:00,48.9,46.7,30.10,NW,318,4.6,4.6,92,0.00,CLR,,0.00,WeatherDisplay:10.37,2013-01-04 20:58:00,
2013-01-04 13:03:00,49.1,47.2,30.09,NNW,330,5.7,5.7,93,0.00,CLR,,0.00,WeatherDisplay:10.37,2013-01-04 21:03:00,
2013-01-04 13:08:00,48.7,46.8,30.09,NW,320,6.0,6.0,93,0.00,CLR,,0.00,WeatherDisplay:10.37,2013-01-04 21:08:00,
2013-01-04 13:13:00,48.3,46.4,30.09,NW,313,6.9,6.9,93,0.00,CLR,,0.00,WeatherDisplay:10.37,2013-01-04 21:13:00,
2013-01-04 13:18:00,48.3,46.7,30.09,NNW,330,5.8,5.8,94,0.00,CLR,,0.00,WeatherDisplay:10.37,2013-01-04 21:18:00,
2013-01-04 13:23:00,48.1,46.5,30.09,North,3,4.6,4.6,94,0.00,CLR,,0.00,WeatherDisplay:10.37,2013-01-04 21:23:00,
2013-01-04 13:28:00,48.3,46.7,30.08,NW,313,6.9,6.9,94,0.00,CLR,,0.00,WeatherDisplay:10.37,2013-01-04 21:28:00,
2013-01-04 13:33:00,48.1,46.5,30.08,WNW,288,6.9,6.9,94,0.00,CLR,,0.00,WeatherDisplay:10.37,2013-01-04 21:33:00,
2013-01-04 13:38:00,47.9,46.3,30.08,NW,318,5.8,5.8,94,0.00,CLR,,0.00,WeatherDisplay:10.37,2013-01-04 21:38:00,
2013-01-04 13:43:00,47.7,46.1,30.08,NW,319,6.9,6.9,94,0.00,CLR,,0.00,WeatherDisplay:10.37,2013-01-04 21:43:00,
2013-01-04 13:48:00,47.7,46.1,30.08,NW,318,6.9,6.9,94,0.00,CLR,,0.00,WeatherDisplay:10.37,2013-01-04 21:48:00,
2013-01-04 13:53:00,47.5,46.1,30.08,North,352,6.0,6.0,95,0.00,CLR,,0.00,WeatherDisplay:10.37,2013-01-04 21:53:00,
2013-01-04 13:58:00,47.7,46.3,30.08,NW,318,6.9,6.9,95,0.00,CLR,,0.00,WeatherDisplay:10.37,2013-01-04 21:58:00,
2013-01-04 14:03:00,47.5,46.1,30.08,NW,322,6.9,6.9,95,0.00,CLR,,0.00,WeatherDisplay:10.37,2013-01-04 22:03:00,
2013-01-04 14:08:00,47.5,46.1,30.08,NW,315,5.8,5.8,95,0.00,CLR,,0.00,WeatherDisplay:10.37,2013-01-04 22:08:00,
2013-01-04 14:13:00,47.3,45.9,30.07,NW,325,6.9,6.9,95,0.00,CLR,,0.00,WeatherDisplay:10.37,2013-01-04 22:13:00,
2013-01-04 14:18:00,47.2,45.8,30.08,NNW,335,6.9,6.9,95,0.00,CLR,,0.00,WeatherDisplay:10.37,2013-01-04 22:18:00,
2013-01-04 14:23:00,47.0,45.9,30.08,NW,311,6.6,6.6,96,0.00,CLR,,0.00,WeatherDisplay:10.37,2013-01-04 22:23:00,
2013-01-04 14:28:00,46.7,45.6,30.08,NW,320,8.1,8.1,96,0.00,CLR,,0.00,WeatherDisplay:10.37,2013-01-04 22:28:00,
2013-01-04 14:33:00,46.3,45.2,30.07,NNW,332,8.1,8.1,96,0.00,CLR,,0.00,WeatherDisplay:10.37,2013-01-04 22:33:00,
2013-01-04 14:38:00,46.0,45.2,30.07,NNW,344,8.1,8.1,97,0.00,CLR,,0.00,WeatherDisplay:10.37,2013-01-04 22:38:00,
2013-01-04 14:43:00,46.1,45.3,30.07,NNW,336,8.1,8.1,97,0.00,CLR,,0.00,WeatherDisplay:10.37,2013-01-04 22:43:00,
2013-01-04 14:48:00,46.0,44.9,30.07,NNW,337,10.4,10.4,96,0.00,CLR,,0.00,WeatherDisplay:10.37,2013-01-04 22:48:00,
2013-01-04 14:53:00,46.1,45.3,30.07,North,11,6.9,6.9,97,0.00,CLR,,0.00,WeatherDisplay:10.37,2013-01-04 22:53:00,
2013-01-04 14:58:00,46.1,45.3,30.07,North,350,8.1,8.1,97,0.00,CLR,,0.00,WeatherDisplay:10.37,2013-01-04 22:58:00,
2013-01-04 15:03:00,46.2,45.4,30.07,NNW,346,5.8,5.8,97,0.00,CLR,,0.00,WeatherDisplay:10.37,2013-01-04 23:03:00,
2013-01-04 15:08:00,46.3,45.5,30.06,NW,323,9.2,9.2,97,0.00,CLR,,0.00,WeatherDisplay:10.37,2013-01-04 23:08:00,
2013-01-04 15:13:00,45.8,45.0,30.06,NNW,342,9.2,9.2,97,0.00,CLR,,0.00,WeatherDisplay:10.37,2013-01-04 23:13:00,
2013-01-04 15:18:00,45.6,44.8,30.06,NNW,336,5.8,5.8,97,0.00,CLR,,0.00,WeatherDisplay:10.37,2013-01-04 23:18:00,
2013-01-04 15:23:00,45.7,45.2,30.06,North,353,6.9,6.9,98,0.00,CLR,,0.00,WeatherDisplay:10.37,2013-01-04 23:23:00,
2013-01-04 15:28:00,45.8,45.3,30.06,NNW,339,6.9,6.9,98,0.00,CLR,,0.00,WeatherDisplay:10.37,2013-01-04 23:28:00,
2013-01-04 15:33:00,45.5,45.0,30.06,NNW,332,8.1,8.1,98,0.00,CLR,,0.00,WeatherDisplay:10.37,2013-01-04 23:33:00,
2013-01-04 15:38:00,45.3,44.8,30.06,NNE,14,6.9,6.9,98,0.00,CLR,,0.00,WeatherDisplay:10.37,2013-01-04 23:38:00,
2013-01-04 15:43:00,45.3,44.8,30.05,NNW,344,5.8,5.8,98,0.00,CLR,,0.00,WeatherDisplay:10.37,2013-01-04 23:43:00,
2013-01-04 15:49:00,45.1,44.6,30.05,NNW,328,5.5,5.5,98,0.00,CLR,,0.00,WeatherDisplay:10.37,2013-01-04 23:49:00,
2013-01-04 15:54:00,44.8,44.3,30.05,NNW,343,5.8,5.8,98,0.00,CLR,,0.00,WeatherDisplay:10.37,2013-01-04 23:54:00,
2013-01-04 15:59:00,44.5,44.0,30.05,North,350,5.8,5.8,98,0.00,CLR,,0.00,WeatherDisplay:10.37,2013-01-04 23:59:00,
2013-01-04 16:04:00,44.2,43.7,30.05,NNW,328,6.9,6.9,98,0.00,CLR,,0.00,WeatherDisplay:10.37,2013-01-05 00:04:00,
2013-01-04 16:09:00,44.0,43.5,30.05,NNW,329,4.4,4.4,98,0.00,CLR,,0.00,WeatherDisplay:10.37,2013-01-05 00:09:00,
2013-01-04 16:14:00,43.6,43.1,30.05,NW,319,5.8,5.8,98,0.00,CLR,,0.00,WeatherDisplay:10.37,2013-01-05 00:14:00,
2013-01-04 16:19:00,43.5,43.2,30.06,NNW,342,6.9,6.9,99,0.00,CLR,,0.00,WeatherDisplay:10.37,2013-01-05 00:19:00,
2013-01-04 16:24:00,43.5,43.2,30.06,NNW,344,8.1,8.1,99,0.00,CLR,,0.00,WeatherDisplay:10.37,2013-01-05 00:24:00,
2013-01-04 16:29:00,43.5,43.2,30.05,NW,320,4.6,4.6,99,0.00,CLR,,0.00,WeatherDisplay:10.37,2013-01-05 00:29:00,
2013-01-04 16:34:00,43.5,43.2,30.05,NW,312,6.9,6.9,99,0.00,CLR,,0.00,WeatherDisplay:10.37,2013-01-05 00:34:00,
2013-01-04 16:39:00,43.4,43.1,30.05,North,352,4.6,4.6,99,0.00,CLR,,0.00,WeatherDisplay:10.37,2013-01-05 00:39:00,
2013-01-04 16:44:00,43.5,43.2,30.05,NW,311,6.9,6.9,99,0.00,CLR,,0.00,WeatherDisplay:10.37,2013-01-05 00:44:00,
2013-01-04 16:49:00,43.3,43.0,30.05,North,352,8.1,8.1,99,0.00,CLR,,0.00,WeatherDisplay:10.37,2013-01-05 00:49:00,
2013-01-04 16:54:00,43.5,43.2,30.05,NW,316,5.8,5.8,99,0.00,CLR,,0.00,WeatherDisplay:10.37,2013-01-05 00:54:00,
2013-01-04 16:59:00,43.6,43.3,30.05,NNW,347,9.2,9.2,99,0.00,CLR,,0.00,WeatherDisplay:10.37,2013-01-05 00:59:00,
2013-01-04 17:04:00,43.6,43.3,30.06,NNW,329,5.8,5.8,99,0.00,CLR,,0.00,WeatherDisplay:10.37,2013-01-05 01:04:00,
2013-01-04 17:09:00,43.6,43.3,30.06,North,349,9.2,9.2,99,0.00,CLR,,0.00,WeatherDisplay:10.37,2013-01-05 01:09:00,
2013-01-04 17:14:00,43.5,43.2,30.06,NNW,347,6.9,6.9,99,0.00,CLR,,0.00,WeatherDisplay:10.37,2013-01-05 01:14:00,
2013-01-04 17:19:00,43.5,43.2,30.06,North,0,8.1,8.1,99,0.00,CLR,,0.00,WeatherDisplay:10.37,2013-01-05 01:19:00,
2013-01-04 17:24:00,43.3,43.0,30.06,North,354,6.8,6.8,99,0.00,CLR,,0.00,WeatherDisplay:10.37,2013-01-05 01:24:00,
2013-01-04 17:29:00,43.0,42.7,30.06,NW,313,9.4,9.4,99,0.00,CLR,,0.00,WeatherDisplay:10.37,2013-01-05 01:29:00,
2013-01-04 17:34:00,43.1,42.8,30.05,NNW,337,8.1,8.1,99,0.00,CLR,,0.00,WeatherDisplay:10.37,2013-01-05 01:34:00,
2013-01-04 17:39:00,43.2,42.9,30.05,NW,312,6.9,6.9,99,0.00,CLR,,0.00,WeatherDisplay:10.37,2013-01-05 01:39:00,
2013-01-04 17:44:00,43.2,42.9,30.05,North,360,9.2,9.2,99,0.00,CLR,,0.00,WeatherDisplay:10.37,2013-01-05 01:44:00,
2013-01-04 17:49:00,43.2,42.9,30.05,NNW,330,8.1,8.1,99,0.00,CLR,,0.00,WeatherDisplay:10.37,2013-01-05 01:49:00,
2013-01-04 17:54:00,43.2,42.9,30.05,NW,311,4.7,4.7,99,0.00,CLR,,0.00,WeatherDisplay:10.37,2013-01-05 01:54:00,
2013-01-04 17:59:00,43.3,43.0,30.05,NW,304,4.6,4.6,99,0.00,CLR,,0.00,WeatherDisplay:10.37,2013-01-05 01:59:00,
2013-01-04 18:04:00,43.3,43.0,30.05,North,352,5.0,5.0,99,0.00,CLR,,0.00,WeatherDisplay:10.37,2013-01-05 02:04:00,
2013-01-04 18:09:00,43.3,43.0,30.06,NW,326,4.6,4.6,99,0.00,CLR,,0.00,WeatherDisplay:10.37,2013-01-05 02:09:00,
2013-01-04 18:14:00,43.3,43.0,30.05,NW,326,6.9,6.9,99,0.00,CLR,,0.00,WeatherDisplay:10.37,2013-01-05 02:14:00,
2013-01-04 18:19:00,43.4,43.1,30.05,NNW,329,6.9,6.9,99,0.00,CLR,,0.00,WeatherDisplay:10.37,2013-01-05 02:19:00,
2013-01-04 18:24:00,43.3,43.0,30.05,NNW,336,6.9,6.9,99,0.00,CLR,,0.00,WeatherDisplay:10.37,2013-01-05 02:24:00,
2013-01-04 18:29:00,43.2,42.9,30.05,NNE,13,5.8,5.8,99,0.00,CLR,,0.00,WeatherDisplay:10.37,2013-01-05 02:29:00,
2013-01-04 18:34:00,43.2,42.9,30.05,NNW,336,6.9,6.9,99,0.00,CLR,,0.00,WeatherDisplay:10.37,2013-01-05 02:34:00,
2013-01-04 18:39:00,43.2,42.9,30.05,NNE,13,8.1,8.1,99,0.00,CLR,,0.00,WeatherDisplay:10.37,2013-01-05 02:39:00,
2013-01-04 18:44:00,43.2,42.9,30.05,NNW,347,8.1,8.1,99,0.00,CLR,,0.00,WeatherDisplay:10.37,2013-01-05 02:44:00,
2013-01-04 18:49:00,43.1,42.8,30.05,NNW,333,8.1,8.1,99,0.00,CLR,,0.00,WeatherDisplay:10.37,2013-01-05 02:49:00,
2013-01-04 18:54:00,43.1,42.8,30.05,NW,326,9.2,9.2,99,0.00,CLR,,0.00,WeatherDisplay:10.37,2013-01-05 02:54:00,
2013-01-04 18:59:00,43.0,42.7,30.05,NNW,336,9.2,9.2,99,0.00,CLR,,0.00,WeatherDisplay:10.37,2013-01-05 02:59:00,
2013-01-04 19:04:00,43.1,42.8,30.05,North,353,8.1,8.1,99,0.00,CLR,,0.00,WeatherDisplay:10.37,2013-01-05 03:04:00,
2013-01-04 19:09:00,42.9,42.6,30.05,North,0,8.1,8.1,99,0.00,CLR,,0.00,WeatherDisplay:10.37,2013-01-05 03:09:00,
2013-01-04 19:14:00,43.1,42.8,30.05,NNE,20,8.1,8.1,99,0.00,CLR,,0.00,WeatherDisplay:10.37,2013-01-05 03:14:00,
2013-01-04 19:19:00,43.2,42.9,30.05,North,360,5.8,5.8,99,0.00,CLR,,0.00,WeatherDisplay:10.37,2013-01-05 03:19:00,
2013-01-04 19:24:00,43.2,42.9,30.05,North,349,4.6,4.6,99,0.00,CLR,,0.00,WeatherDisplay:10.37,2013-01-05 03:24:00,
2013-01-04 19:29:00,43.2,42.9,30.05,North,356,4.6,4.6,99,0.00,CLR,,0.00,WeatherDisplay:10.37,2013-01-05 03:29:00,
2013-01-04 19:34:00,43.1,42.8,30.04,NNW,328,6.9,6.9,99,0.00,CLR,,0.00,WeatherDisplay:10.37,2013-01-05 03:34:00,
2013-01-04 19:39:00,43.2,42.9,30.05,NNW,340,4.6,4.6,99,0.00,CLR,,0.00,WeatherDisplay:10.37,2013-01-05 03:39:00,
2013-01-04 19:44:00,43.1,42.8,30.04,NNW,343,4.6,4.6,99,0.00,CLR,,0.00,WeatherDisplay:10.37,2013-01-05 03:44:00,
2013-01-04 19:49:00,42.9,42.6,30.04,NNW,332,6.9,6.9,99,0.00,CLR,,0.00,WeatherDisplay:10.37,2013-01-05 03:49:00,
2013-01-04 19:54:00,42.9,42.6,30.05,North,1,6.4,6.4,99,0.00,CLR,,0.00,WeatherDisplay:10.37,2013-01-05 03:54:00,
2013-01-04 19:59:00,42.8,42.5,30.05,NNW,339,4.6,4.6,99,0.00,CLR,,0.00,WeatherDisplay:10.37,2013-01-05 03:59:00,
2013-01-04 20:04:00,42.8,42.5,30.05,NW,323,5.3,5.3,99,0.00,CLR,,0.00,WeatherDisplay:10.37,2013-01-05 04:04:00,
2013-01-04 20:09:00,42.7,42.4,30.05,NNW,337,6.9,6.9,99,0.00,CLR,,0.00,WeatherDisplay:10.37,2013-01-05 04:09:00,
2013-01-04 20:14:00,42.7,42.4,30.04,NNE,18,6.1,6.1,99,0.00,CLR,,0.00,WeatherDisplay:10.37,2013-01-05 04:14:00,
2013-01-04 20:19:00,42.7,42.4,30.04,NNW,337,5.8,5.8,99,0.00,CLR,,0.00,WeatherDisplay:10.37,2013-01-05 04:19:00,
2013-01-04 20:24:00,42.8,42.5,30.04,North,354,4.6,4.6,99,0.00,CLR,,0.00,WeatherDisplay:10.37,2013-01-05 04:24:00,
2013-01-04 20:29:00,42.8,42.5,30.05,NW,309,3.5,3.5,99,0.00,CLR,,0.00,WeatherDisplay:10.37,2013-01-05 04:29:00,
2013-01-04 20:34:00,42.8,42.5,30.05,NW,305,2.7,2.7,99,0.00,CLR,,0.00,WeatherDisplay:10.37,2013-01-05 04:34:00,
2013-01-04 20:39:00,42.9,42.6,30.05,NW,315,2.3,0.0,99,0.00,CLR,,0.00,WeatherDisplay:10.37,2013-01-05 04:39:00,
2013-01-04 20:44:00,42.8,42.5,30.05,NNW,329,3.4,0.0,99,0.00,CLR,,0.00,WeatherDisplay:10.37,2013-01-05 04:44:00,
2013-01-04 20:49:00,42.8,42.5,30.05,WNW,302,0.0,0.0,99,0.00,CLR,,0.00,WeatherDisplay:10.37,2013-01-05 04:49:00,
2013-01-04 20:54:00,42.9,42.6,30.05,NNW,336,3.5,3.5,99,0.00,CLR,,0.00,WeatherDisplay:10.37,2013-01-05 04:54:00,
2013-01-04 20:59:00,42.7,42.4,30.05,NNW,329,2.3,2.3,99,0.00,CLR,,0.00,WeatherDisplay:10.37,2013-01-05 04:59:00,
2013-01-04 21:00:00,42.8,42.5,30.05,NNW,330,0.0,2.0,99,0.00,CLR,CLR,0.00,WeatherDisplay:10.37,2013-01-05 05:00:00,
2013-01-04 21:01:00,42.8,42.5,30.05,NNW,329,0.0,0.0,99,0.00,CLR,,0.00,WeatherDisplay:10.37,2013-01-05 05:01:00,
2013-01-04 21:02:00,42.7,42.4,30.05,NNW,329,0.0,0.0,99,0.00,CLR,,0.00,WeatherDisplay:10.37,2013-01-05 05:02:00,
2013-01-04 21:07:00,42.7,42.4,30.04,North,0,3.5,3.5,99,0.00,CLR,,0.00,WeatherDisplay:10.37,2013-01-05 05:07:00,
2013-01-04 21:12:00,42.7,42.4,30.05,North,350,4.0,4.0,99,0.00,CLR,,0.00,WeatherDisplay:10.37,2013-01-05 05:12:00,
2013-01-04 21:17:00,42.7,42.4,30.05,NNW,333,2.8,2.8,99,0.00,CLR,,0.00,WeatherDisplay:10.37,2013-01-05 05:17:00,
2013-01-04 21:22:00,42.6,42.3,30.05,NW,325,4.6,4.6,99,0.00,CLR,,0.00,WeatherDisplay:10.37,2013-01-05 05:22:00,
2013-01-04 21:27:00,42.7,42.4,30.05,NNW,333,2.9,2.9,99,0.00,CLR,,0.00,WeatherDisplay:10.37,2013-01-05 05:27:00,
2013-01-04 21:32:00,42.6,42.3,30.05,North,357,0.0,0.0,99,0.00,CLR,,0.00,WeatherDisplay:10.37,2013-01-05 05:32:00,
2013-01-04 21:37:00,42.5,42.2,30.05,North,357,0.0,0.0,99,0.00,CLR,,0.00,WeatherDisplay:10.37,2013-01-05 05:37:00,
2013-01-04 21:42:00,42.4,42.1,30.05,NNE,21,5.6,5.6,99,0.00,CLR,,0.00,WeatherDisplay:10.37,2013-01-05 05:42:00,
2013-01-04 21:47:00,42.4,41.9,30.05,NNE,13,4.6,4.6,98,0.00,CLR,,0.00,WeatherDisplay:10.37,2013-01-05 05:47:00,
2013-01-04 21:52:00,42.5,42.0,30.05,NNE,25,2.5,2.5,98,0.00,CLR,,0.00,WeatherDisplay:10.37,2013-01-05 05:52:00,
2013-01-04 21:57:00,42.4,41.9,30.05,NE,41,3.5,3.5,98,0.00,CLR,,0.00,WeatherDisplay:10.37,2013-01-05 05:57:00,
2013-01-04 22:02:00,42.5,42.0,30.05,NNE,32,3.5,3.5,98,0.00,CLR,,0.00,WeatherDisplay:10.37,2013-01-05 06:02:00,
2013-01-04 22:07:00,42.4,41.9,30.05,NNE,14,3.5,3.5,98,0.00,CLR,,0.00,WeatherDisplay:10.37,2013-01-05 06:07:00,
2013-01-04 22:12:00,42.4,41.9,30.05,NE,38,3.5,3.5,98,0.00,CLR,,0.00,WeatherDisplay:10.37,2013-01-05 06:12:00,
2013-01-04 22:17:00,42.3,41.8,30.05,NE,38,4.6,4.6,98,0.00,CLR,,0.00,WeatherDisplay:10.37,2013-01-05 06:17:00,
2013-01-04 22:22:00,42.2,41.7,30.05,NE,38,5.9,5.9,98,0.00,CLR,,0.00,WeatherDisplay:10.37,2013-01-05 06:22:00,
2013-01-04 22:27:00,42.2,41.7,30.05,NE,44,6.9,6.9,98,0.00,CLR,,0.00,WeatherDisplay:10.37,2013-01-05 06:27:00,
2013-01-04 22:32:00,42.1,41.6,30.05,NNE,32,5.8,5.8,98,0.00,CLR,,0.00,WeatherDisplay:10.37,2013-01-05 06:32:00,
2013-01-04 22:37:00,42.2,41.7,30.05,NNE,21,3.5,3.5,98,0.00,CLR,,0.00,WeatherDisplay:10.37,2013-01-05 06:37:00,
2013-01-04 22:42:00,42.1,41.6,30.05,NE,37,4.6,4.6,98,0.00,CLR,,0.00,WeatherDisplay:10.37,2013-01-05 06:42:00,
2013-01-04 22:47:00,42.1,41.6,30.05,NNE,28,4.6,4.6,98,0.00,CLR,,0.00,WeatherDisplay:10.37,2013-01-05 06:47:00,
2013-01-04 22:52:00,42.1,41.6,30.05,NNE,16,0.0,0.0,98,0.00,CLR,,0.00,WeatherDisplay:10.37,2013-01-05 06:52:00,
2013-01-04 22:57:00,42.2,41.7,30.05,NNE,16,0.0,0.0,98,0.00,CLR,,0.00,WeatherDisplay:10.37,2013-01-05 06:57:00,
2013-01-04 23:02:00,42.2,41.7,30.05,NNE,16,0.0,0.0,98,0.00,CLR,,0.00,WeatherDisplay:10.37,2013-01-05 07:02:00,
2013-01-04 23:07:00,42.2,41.7,30.06,NNE,16,0.0,0.0,98,0.00,CLR,,0.00,WeatherDisplay:10.37,2013-01-05 07:07:00,
2013-01-04 23:12:00,42.2,41.7,30.06,NNE,16,0.0,0.0,98,0.00,CLR,,0.00,WeatherDisplay:10.37,2013-01-05 07:12:00,
2013-01-04 23:17:00,42.0,41.5,30.06,NE,44,4.6,4.6,98,0.00,CLR,,0.00,WeatherDisplay:10.37,2013-01-05 07:17:00,
2013-01-04 23:22:00,41.9,41.1,30.05,NE,38,4.6,4.6,97,0.00,CLR,,0.00,WeatherDisplay:10.37,2013-01-05 07:22:00,
2013-01-04 23:27:00,41.8,41.0,30.05,NE,37,3.6,3.6,97,0.00,CLR,,0.00,WeatherDisplay:10.37,2013-01-05 07:27:00,
2013-01-04 23:32:00,41.6,40.8,30.05,NE,35,4.6,4.6,97,0.00,CLR,,0.00,WeatherDisplay:10.37,2013-01-05 07:32:00,
2013-01-04 23:37:00,41.4,40.3,30.05,NE,42,3.6,3.6,96,0.00,CLR,,0.00,WeatherDisplay:10.37,2013-01-05 07:37:00,
2013-01-04 23:42:00,41.4,40.3,30.05,North,8,2.3,2.3,96,0.00,CLR,,0.00,WeatherDisplay:10.37,2013-01-05 07:42:00,
2013-01-04 23:47:00,41.4,40.3,30.05,North,8,0.0,0.0,96,0.00,CLR,,0.00,WeatherDisplay:10.37,2013-01-05 07:47:00,
2013-01-04 23:52:00,41.4,40.3,30.05,North,8,0.0,0.0,96,0.00,CLR,,0.00,WeatherDisplay:10.37,2013-01-05 07:52:00,
2013-01-04 23:57:00,41.3,40.2,30.05,North,8,0.0,0.0,96,0.00,CLR,,0.00,WeatherDisplay:10.37,2013-01-05 07:57:00,